Regional Weather Roundup
Issued by NWS

Home | Current Version | Previous Version | Text Only | Print | Product List | Glossary On
Versions: 1 2 3 4 5 6 7 8 9 10 11 12 13 14 15 16 17 18 19 20 21 22 23 24 25 26 27 28 29 30 31 32 33 34 35 36 37 38 39 40 41 42 43 44 45 46 47 48 49 50
000
ASUS43 KLSX 101359
RWRMO

WEATHER SUMMARY FOR MISSOURI
NATIONAL WEATHER SERVICE SPRINGFIELD MO
900 AM CDT THU JUL 10 2014

NOTE: "FAIR" INDICATES FEW OR NO CLOUDS BELOW 12,000 FEET WITH NO
       SIGNIFICANT WEATHER AND/OR OBSTRUCTIONS TO VISIBILITY.
       CURRENT SKY AND/OR WEATHER CONDITIONS ARE NOT AVAILABLE FOR
       CHILLICOTHE AND FARMINGTON.

MOZ001>031-035>038-043-044-053-054-101500-
...NORTHERN AND WESTERN MISSOURI...

CITY           SKY/WX    TMP DP  RH WIND       PRES   REMARKS
KANSAS CTY INT CLOUDY    72  61  68 SE10      30.09R
KANSAS C DTWN  CLOUDY    73  60  63 SE8       30.09R
LEE`S SUMMIT   CLOUDY    71  60  68 SE9       30.11R
ST JOSEPH      PTSUNNY   72  61  68 SE10      30.09R
CHILLICOTHE      N/A     73  60  63 SE7       30.12S
KIRKSVILLE     SUNNY     71  61  70 SE7       30.15S

$$
MOZ066>068-077>081-088>096-101>105-101500-
...SOUTHWEST MISSOURI...

CITY           SKY/WX    TMP DP  RH WIND       PRES   REMARKS
SPRINGFIELD    CLOUDY    71  62  73 SE9       30.13R
JOPLIN         CLOUDY    68  62  81 CALM      30.12R

$$
MOZ032>034-039>042-045>050-055>058-069>072-101500-
...CENTRAL MISSOURI...

CITY           SKY/WX    TMP DP  RH WIND       PRES   REMARKS
COLUMBIA       PTSUNNY   71  61  70 SE6       30.14R
JEFFERSON CITY PTSUNNY   69  62  78 SE5       30.13S
ROLLA            N/A    N/A N/A N/A MISG      30.13S
SEDALIA        CLOUDY    70  63  78 SE8       30.13R
OSAGE BEACH    CLOUDY    68  61  77 CALM      30.13S

$$
MOZ051-052-059>065-101500-
...EAST CENTRAL MISSOURI...

CITY           SKY/WX    TMP DP  RH WIND       PRES   REMARKS
ST LOUIS INTL  MOSUNNY   74  59  59 E3        30.16R
SPIRIT OF STL  SUNNY     71  62  73 E3        30.13S
ST CHARLES     SUNNY     72  60  66 E3        30.15R

$$
MOZ072>076-082>087-097>100-106>115-101500-
...SOUTH CENTRAL AND SOUTHEAST MISSOURI...

CITY           SKY/WX    TMP DP  RH WIND       PRES   REMARKS
CAPE GIRARDEAU SUNNY     76  63  64 NE6       30.11R
FARMINGTON     SUNNY     72  61  68 NE3       30.16S
POPLAR BLUFF   SUNNY     73  62  68 NE6       30.10R
WEST PLAINS    PTSUNNY   71  61  70 E5        30.15R

$$



USA.gov is the U.S. government's official web portal to all federal, state and local government web resources and services.